sat.trackr.live / text

‹ back to catalog

STARLINK-37318

NORAD 68712 · 2026-081P

PAYLOAD ACTIVE UNKNOWN

§ Identity

Operator
Country
US
Launch date
2026-04-14
Launch site
AFETR
Launch vehicle
Mass (kg)
RCS (m²)

Purposes: comms

External: N2YO · Heavens-Above · Gunter

§ Orbital elements

Epoch: 2026-05-25T00:29:45.595968Z

Period
92.94 min
Inclination
53.1603°
Eccentricity
0.0001123
Mean motion
15.49342356 rev/d
Perigee alt
417.9 km
Apogee alt
419.4 km
Semi-major
6,796.8 km
B*
6.6242e-4
RAAN
39.9600°
Arg perigee
109.7510°
Mean anomaly
250.3620°
Rev number
642

§ Raw data

STARLINK-373181 68712U 26081P   26145.02066662  .00036609  00000+0  66242-3 0  99932 68712  53.1603  39.9600 0001123 109.7510 250.3620 15.49342356  6423

JSON: /api/v1/satellites/68712 · /tle

For live sub-satellite position, see the globe view (requires WebGL).

§ Visibility from observer

Set your observer location to see the next 7 days of passes ≥ 10°. The values pass through the URL so the page stays shareable.

No JS? Fill the form by hand. The geolocation button needs JavaScript.